Location: 3 Angels Observatory
(30.5437°N, 88.5068°W)
Time: 18:51:40
(UTC-06:00)

Daily predictions for brighter satellites

Satellite Brightness Start Highest point End
(mag) Time Altitude Azimuth Time Altitude Azimuth Time Altitude Azimuth
OAO 3 Copernicus 4.4 18:10:33 10° WNW 18:15:40 90° NNE 18:20:44 10° ESE
Cosmos 1536 Rocket 3.6 18:12:42 10° N 18:17:12 84° E 18:21:40 10° S
COSMOS 2428 3.7 18:13:24 10° N 18:18:01 25° ENE 18:22:35 10° ESE
Okean 1-7 Rocket 4.5 18:17:41 10° NNE 18:21:32 27° E 18:25:18 10° SE
Meteor 2-4 Rocket 4.2 18:19:17 10° NNE 18:24:16 35° ENE 18:29:09 10° SE
Cosmos 2219 Rocket 3.7 18:22:47 10° NNE 18:25:59 15° ENE 18:28:57 11° E
Cosmos 2360 Rocket 2.2 18:20:54 10° NNW 18:26:33 70° ENE 18:32:11 10° SSE
Tiangong 2 2.6 18:23:57 10° WNW 18:26:47 34° SW 18:29:35 10° SSE
Cosmos 2219 3.2 18:22:58 10° SSW 18:28:43 85° ESE 18:34:29 10° NNE
OAO 3 Rocket 3.8 18:24:24 10° SW 18:29:08 45° SSE 18:33:19 13° E
Atlas Centaur 2 3.8 18:23:42 10° SSW 18:30:28 31° SSE 18:35:46 12° E
FREGAT/IRIS 3.1 18:27:46 10° SSE 18:30:40 39° ENE 18:33:34 10° N
Cosmos 2227 Rocket 3.3 18:26:36 10° SSE 18:30:53 22° E 18:35:10 10° NE
Meteor 1-13 Rocket 4.2 18:25:32 10° N 18:31:09 75° E 18:36:51 10° SSE
Cosmos 1300 Rocket 4.2 18:31:00 10° SSW 18:35:21 61° W 18:39:45 10° N
Cosmos 1536 2.7 18:32:40 10° S 18:36:39 80° E 18:40:37 10° N
Helios 1B rocket 3.9 18:35:40 10° NE 18:38:30 18° E 18:41:18 10° SE
Cosmos 1455 Rocket 4.3 18:40:33 10° SE 18:43:37 19° E 18:46:41 10° NE
Cosmos 1340 4.4 18:49:19 10° NNW 18:52:49 36° W 18:56:17 10° SSW
Intercosmos 24 4.2 18:53:10 10° S 18:57:10 80° E 19:02:50 10° N
Resurs 01 Rocket 1.9 18:53:04 10° SE 18:57:14 43° ENE 19:01:24 10° N
Cosmos 1610 Rocket 4.5 18:56:37 10° S 19:02:43 58° E 19:08:45 10° NNE
ATLAS 2A CENTAUR R/B 2.7 19:03:24 10° WSW 19:06:03 36° S 19:10:06 19° SE
Cosmos 2327 Rocket 4.5 19:01:03 10° S 19:07:16 89° W 19:13:37 10° N
Resurs 1-3 3.8 19:03:25 10° SSE 19:07:37 47° ENE 19:11:50 10° N
FENGYUN 3A 3.6 19:03:11 10° SSE 19:08:36 80° ENE 19:14:01 10° N
Cosmos 2333 Rocket 2.9 19:07:10 10° N 19:12:15 31° ENE 19:13:00 30° ENE
GPS 2-04 Rocket1 3.7 19:08:43 10° WNW 19:12:46 41° N 19:14:12 30° NE
GEOS 3 Rocket 3.8 19:10:05 10° NNE 19:15:20 75° WNW 19:20:37 10° SW
SL-19 R/B 4.2 19:12:53 10° SSE 19:18:29 76° ENE 19:24:28 10° NNW
Genesis I 3.7 19:14:57 10° NW 19:18:49 57° WSW 19:21:42 16° S
Cosmos 1570 Rocket 4.4 19:15:10 10° NNW 19:20:20 64° WSW 19:25:31 10° S
OTV 4 1.9 19:20:01 10° W 19:22:38 30° NNW 19:22:38 30° NNW
Cosmos 1892 Rocket 3.5 19:21:48 10° N 19:26:06 58° E 19:26:07 58° E
Spot 2 Rocket 3.4 19:22:10 10° SSE 19:27:13 88° WSW 19:32:18 10° NNW
Cosmos 1025 Rocket 3.6 19:24:03 10° NNW 19:28:22 59° W 19:32:41 10° S
Skynet4D Del rocket 3.7 19:23:16 10° WSW 19:28:33 56° S 19:29:46 45° SE
Cosmos 468 Rocket 4.1 19:23:29 10° N 19:28:35 49° ENE 19:28:51 49° E
USA 229 DEB 3.7 19:24:33 10° NNW 19:31:43 70° ENE 19:35:24 31° SE
USA 229 3.7 19:24:39 10° NNW 19:31:49 69° ENE 19:35:26 32° SE
Cosmos 2082 3.6 19:27:12 10° SSW 19:32:55 78° ESE 19:37:58 14° NNE
Hubble Space Telescope 1.0 19:35:15 10° W 19:38:56 61° SW 19:38:56 61° SW
Cosmos 1544 Rocket 4.1 19:39:24 10° SSW 19:43:38 56° W 19:47:54 10° N
DELTA 2 R/B (1) 4.5 19:38:56 10° WNW 19:44:13 43° SW 19:46:05 32° S
H-2A R/B 3.9 19:46:09 26° SSW 19:47:45 40° W 19:51:17 10° NNW
ALOS 4.0 19:43:40 10° SSW 19:47:50 32° W 19:52:00 10° NW
CZ-2D R/B 4.3 19:49:35 41° NW 19:49:35 41° NW 19:52:18 10° NNW
Cosmos 405 Rocket 3.7 19:45:34 10° NNW 19:48:31 44° NW 19:48:31 44° NW
Cosmos 2297 Rocket 2.2 19:48:22 10° SSW 19:54:01 79° WNW 19:56:25 36° NNE
Nadezhda 3 Rocket 3.8 19:51:36 10° N 19:57:47 88° E 19:59:43 47° S
Cosmos 2237 Rocket 2.9 19:52:36 10° N 19:56:29 41° NNE 19:56:29 41° NNE
NOSS 0 Rocket 3.7 19:52:55 10° NNW 19:59:05 83° ENE 19:59:13 82° E
Cosmos 2341 Rocket 4.0 19:55:32 10° S 20:01:52 81° W 20:08:18 10° N
COSMOS 2428 4.1 19:57:08 10° NW 20:02:15 35° WSW 20:07:22 10° SSW
NOSS 3-1 (C) 4.2 19:54:50 10° NNW 20:02:16 52° NE 20:02:16 52° NE
H-2A R/B 3.4 20:01:37 10° SW 20:06:04 52° SSE 20:06:25 52° SE
Cosmos 2219 Rocket 2.6 20:04:46 10° NNW 20:10:16 59° WSW 20:10:47 56° SW
OAO 3 Rocket 4.3 20:07:43 10° W 20:11:09 43° W 20:11:09 43° W
Cosmos 2227 Rocket 3.5 20:09:26 10° SW 20:14:37 37° WNW 20:19:50 10° N
Atlas Centaur 2 2.9 20:12:36 10° WSW 20:18:27 53° SW 20:18:27 53° SW
BREEZE-M DEB (TANK) 3.8 20:22:11 10° NW 20:25:25 66° WNW 20:25:25 66° WNW
Cosmos 2333 Rocket 4.1 20:51:32 10° NW 20:55:04 26° W 20:55:04 26° W
ATLAS 3B CENTAUR R/B 4.2 20:46:07 10° WSW 21:09:41 68° SSW 21:09:41 68° SSW
